Reflectivity
-20 -20 -20 -20 -20 -20 -20 -20 -20 -20 -20 -20 -20 -20 -20 -20 -20 -20 -20 -20 -20 13 -20 -20 -20 -20 -20 -20 5 4 -19 -8 11 -20 -20 -20 -20 -20
-20 -20 -20 -20 -20 -20 -20 -20 -20 -20 -20 -20 -20 -20 -20 -20 -20 -20 -20 -20 -20 -15 -20 -20 -20 -20 -20 -20 -20 -20 -13 12 -20 -20 -20 -20 -20 -20
-20 -20 -20 -20 -20 -20 -20 -20 -20 -20 -20 -20 -20 -20 -20 -20 -20 -20 -20 -20 -20 -20 -20 -20 -20 -20 -20 -20 -20 -20 -20 -20 11 5 -5 -7 -8 -20
-20 -20 -20 -20 -20 -20 -20 -20 -20 -20 -20 -20 -20 -20 -20 -20 -20 -20 -20 -20 -20 -20 -20 -20 -20 -20 -20 -20 -20 -20 -20 -20 12 12 12 -2 -19 -13
-20 -20 -20 -20 -20 -20 -20 -20 -20 -20 -20 -20 -20 -20 -20 -20 -20 -20 -20 -20 -20 -20 -20 -20 -20 -20 -20 -20 -20 -20 -20 -20 -20 -20 -20 -20 -20 -20
-20 -20 -20 -20 -20 -20 -20 -20 -20 -20 -20 -20 -20 -20 -20 -20 -20 -20 -20 -20 -20 -20 -20 -20 -20 -20 -20 -20 -20 -20 -20 -20 -20 -20 -20 -20 -20 -20
-20 -20 -20 -20 -20 -20 -20 -20 -20 -20 -20 -20 -20 -20 -20 -20 -20 -20 -20 -20 -20 -20 -20 -20 -20 -20 -20 -20 -20 -20 -20 -20 -20 -20 -20 -20 -20 -20
-1 -20 -20 -20 -20 -20 -20 -20 -20 -20 -20 -20 -20 -20 -20 -20 -20 -20 -20 -20 -20 -20 -20 -20 -20 -20 -20 -20 -20 -20 -20 -20 -20 -20 -20 -20 -20 -20
-20 -20 -20 -20 -20 -20 -20 -20 -20 -20 -20 -20 -20 -20 -20 -20 -20 -20 -20 -20 -20 -20 -20 -20 -20 -20 -20 -20 -20 -20 -20 -20 -20 -20 -20 -20 -20 -20
-20 -20 -20 -20 -20 -20 -20 -20 -20 -20 -20 -20 -20 -20 -20 -20 -20 -20 -20 -20 -20 -20 -20 -20 -20 -20 -20 -20 -20 -20 -20 -20 -20 -20 -20 -20 -20 -20
-6 -20 -20 -20 -20 -20 -20 -20 -20 -20 -20 -20 -20 -20 -20 -20 -20 -20 -20 -20 -20 -20 -20 -20 -20 -20 -20 -20 -20 -20 -20 -20 -20 -20 -20 -20 -20 -20
-7 -7 -20 -20 -20 -20 -20 -20 -20 -20 -20 -20 -20 -20 -20 -20 -20 -20 -20 -20 -20 -20 -20 -20 -20 -20 -20 -20 -20 -20 -20 -20 -20 -20 -20 -20 -20 -20
-16 -4 -20 -20 -20 -20 -20 -20 -20 -20 -20 -20 -20 -20 -20 -20 -20 -20 -20 -20 -20 -20 -20 -20 -20 -20 -20 -20 -20 -20 -20 -20 -20 -20 -20 -20 -20 -20
1 -18 -20 -20 -20 -20 -20 -20 -20 -20 -20 -20 -20 -20 -20 -20 -20 -20 -20 -20 -20 -20 -20 -20 -20 -20 -20 -20 -20 -20 -20 -20 -20 -20 -20 -20 -20 -20
-17 -19 -20 -20 -20 -20 -20 -20 -20 -20 -20 -20 -20 -20 -20 -20 -20 -20 -20 -20 -20 -20 -20 -20 -20 -20 -20 -20 -20 -20 -20 -20 -20 -20 -20 -20 -20 -20
-20 -20 -20 -20 -20 -20 -20 -20 -20 -6 -2 -20 -20 -20 -20 -20 -20 -20 -20 -20 -20 -20 -20 -20 -20 -20 -20 -20 -20 -20 -20 -20 -20 -20 -20 -20 -20 -20
-20 -20 -20 -20 -20 -12 -6 14 6 -7 -7 -15 -20 -20 -20 -20 -20 -20 -20 -20 -20 -20 -20 -20 -20 -20 -20 -20 -20 -20 -20 -20 -20 -20 -20 -20 -20 -20
-20 -20 -20 -16 1 -0 4 17 2 4 7 10 -20 -20 -20 -20 -20 -20 -20 -20 -20 -20 -20 -20 -20 -20 -20 -20 -20 -20 -20 -20 -20 -20 -20 -20 -20 -20
-20 -19 -1 -1 -7 -2 14 10 7 1 19 24 -20 -15 0 -19 -20 -20 -20 -20 -20 -20 -20 -20 -20 -20 -20 -20 -20 -20 -20 -20 -20 -20 -20 -20 -20 -20
3 9 9 13 16 17 13 10 -0 13 3 -19 -4 -12 2 -11 -20 -20 -20 -20 -20 -20 -20 -20 -20 -20 -20 -20 -20 -20 -20 -20 -20 -20 -20 -20 -20 -20
9 14 11 19 10 14 10 7 1 1 5 12 -17 -6 -5 -7 -20 -20 -20 -20 -20 -20 -20 -20 -20 -20 -20 -20 -20 -20 -20 -20 -20 -20 -20 -20 -20 -20
29 26 27 21 5 4 -10 -20 -16 -0 8 -17 -20 -8 -6 -20 -20 -20 -20 -20 -20 -20 -20 -20 -20 -20 -20 -20 -20 -20 -20 -20 -20 -20 -20 -20 -20 -10
3 5 3 -2 -9 -19 -20 -10 2 6 -20 -20 -13 -18 -20 -20 -20 -20 -20 -20 -20 -20 -20 -20 -20 -20 -20 -20 -20 -20 -20 -20 -20 -20 -20 -20 -20 -20
Wind_Speed
5 5 3 4 4 4 3 4 5 4 4 3 2 2 1 3 5 5 5 10 8 10 12 12 13 14 14 14 15 16 16 16 17 18 19 19 19 19
4 6 4 3 4 3 4 3 3 4 3 2 1 1 1 3 6 5 6 8 9 11 11 12 13 13 13 13 14 16 17 16 17 18 19 20 20 19
5 6 7 6 4 4 3 3 3 3 3 0 1 1 1 2 3 4 4 5 4 10 11 11 13 14 15 14 14 14 16 14 16 18 19 20 20 21
8 6 7 4 6 5 4 4 4 3 4 3 1 1 2 1 1 4 3 3 4 11 12 11 13 14 15 14 14 14 12 12 15 17 18 19 20 20
8 8 7 7 6 4 4 5 3 2 3 4 2 1 1 2 2 2 3 3 2 10 10 10 11 14 15 13 14 13 12 13 15 16 17 18 18 19
7 7 7 8 8 7 5 5 5 4 3 3 2 2 1 1 2 2 2 2 1 2 6 7 7 11 14 12 13 13 13 14 16 17 17 17 18 19
6 6 7 7 11 10 6 6 6 4 4 4 3 2 1 1 1 0 1 1 1 2 3 3 2 4 5 8 7 9 11 13 15 16 17 19 19 19
8 6 6 9 9 13 11 13 10 7 5 4 3 3 3 3 2 2 1 2 1 0 3 3 2 4 3 4 11 8 10 16 15 17 16 18 18 19
8 8 6 5 8 7 10 12 11 10 7 6 6 5 5 6 5 3 2 2 2 2 2 2 1 3 3 5 9 9 10 17 16 19 18 19 19 19
9 9 8 8 8 9 8 7 5 5 6 4 6 6 4 7 5 4 5 2 1 1 1 1 2 3 2 4 7 7 13 14 17 16 18 19 20 19
7 7 8 9 15 18 11 9 7 4 7 10 10 11 10 10 8 4 2 2 1 1 2 1 2 4 2 2 2 9 13 17 15 17 19 18 19 18
5 5 14 11 18 19 10 10 9 6 6 5 5 6 6 8 9 2 4 2 2 1 2 1 2 2 4 3 3 3 5 12 16 20 19 18 18 6
7 6 6 18 18 19 15 10 9 9 10 6 4 4 4 4 3 3 3 3 3 2 3 2 1 1 1 3 4 5 5 6 8 10 15 16 16 15
9 7 7 17 17 17 14 15 13 14 5 5 4 3 3 3 4 4 4 3 2 4 3 3 2 3 2 3 4 2 3 6 7 7 8 13 18 19
6 10 15 17 16 14 16 16 15 7 7 5 6 4 3 4 5 3 2 2 2 3 3 4 4 2 3 4 6 6 8 2 7 7 5 6 8 8
11 9 11 12 13 9 9 9 5 6 7 7 4 3 3 3 3 3 3 2 1 3 3 5 5 4 3 5 6 9 6 3 3 6 7 8 8 8
8 4 4 6 7 5 4 5 4 5 5 4 3 4 4 4 3 3 2 2 3 2 2 2 3 5 6 7 6 7 6 5 7 8 6 10 9 9
5 5 6 7 8 7 7 6 5 8 4 4 4 5 5 6 5 3 2 4 4 3 2 2 2 4 3 5 14 6 3 4 8 9 9 9 12 10
4 6 7 7 6 7 8 7 7 6 5 6 6 6 6 5 7 5 4 4 3 3 3 3 2 3 4 8 3 10 3 4 10 9 8 8 12 13
3 5 7 6 6 6 7 7 5 4 6 7 6 6 6 5 3 4 4 5 4 2 2 2 3 4 4 5 7 9 13 7 6 9 10 10 13 25
4 5 5 6 7 9 8 6 5 5 4 6 7 6 6 5 6 5 5 9 8 4 5 3 6 11 2 2 7 10 7 15 13 9 10 11 13 14
4 5 6 6 6 7 5 6 4 4 7 7 6 6 6 6 6 6 5 5 5 4 4 3 2 1 1 4 9 11 9 8 9 18 22 20 10 11
4 5 6 7 6 5 5 4 6 7 7 7 7 7 6 6 5 5 4 5 4 3 3 2 1 2 3 5 11 10 13 12 9 10 10 18 22 25
Wind_Direction
183 172 162 168 159 161 152 144 150 168 209 214 156 7 15 42 65 64 48 34 37 52 39 39 35 31 26 25 27 23 17 13 14 12 8 5 4 3
172 172 174 161 157 157 152 141 132 139 163 159 193 157 359 83 50 54 51 37 34 51 39 42 36 34 32 26 30 24 18 20 20 17 16 14 10 7
174 180 184 164 169 161 149 135 142 132 124 196 116 170 45 61 42 45 51 52 23 47 42 38 44 41 36 29 23 19 15 20 19 17 15 12 12 7
179 178 186 165 172 167 161 174 163 153 129 144 130 111 102 37 39 67 29 77 62 43 44 46 46 41 34 38 29 21 20 27 21 13 11 7 4 1
180 179 179 165 167 159 168 161 157 132 113 127 147 125 117 20 37 42 41 33 69 39 37 41 48 42 35 33 28 23 33 29 17 10 5 2 0 355
175 180 174 174 169 166 171 170 152 142 127 112 102 133 126 21 79 77 34 17 342 9 15 31 48 36 32 28 20 31 28 21 10 2 2 3 358 355
181 183 179 178 176 170 155 164 153 144 141 134 128 123 157 144 148 281 123 316 309 15 347 346 8 5 10 9 356 1 25 14 9 0 359 357 355 353
176 179 167 161 173 173 172 172 169 156 157 142 149 172 190 151 149 161 154 53 19 239 9 320 9 349 331 345 355 1 13 4 1 356 351 351 349 347
169 168 158 159 158 153 163 168 178 176 165 155 159 187 168 177 156 155 164 139 223 295 61 293 3 304 294 335 354 1 352 354 349 347 345 345 345 345
169 174 163 157 159 147 138 140 145 145 155 163 169 172 163 158 161 168 158 161 306 287 82 246 325 267 299 304 340 358 345 343 339 337 337 336 337 337
170 168 163 158 167 156 147 150 146 151 149 144 146 155 155 166 163 128 142 115 93 303 1 54 334 309 302 281 291 330 340 338 338 337 332 330 328 330
168 170 176 169 171 167 158 156 157 175 155 125 130 136 111 156 169 165 163 141 143 26 252 17 5 3 325 312 310 321 313 327 334 326 327 326 325 318
173 170 179 183 183 176 170 167 176 153 168 144 142 141 138 148 148 158 173 138 139 222 209 106 184 344 226 303 303 316 325 320 316 310 317 317 315 316
182 176 177 185 184 181 177 183 172 159 145 152 158 171 173 179 186 179 174 176 202 199 187 157 206 170 161 289 274 289 308 292 292 306 315 311 314 312
167 169 172 182 183 183 178 183 176 158 162 170 186 185 183 178 144 146 154 184 230 239 222 185 181 194 188 242 273 285 305 287 292 281 285 283 291 300
164 168 176 173 179 170 168 179 151 165 177 189 185 160 134 143 164 157 156 160 125 285 260 221 212 167 245 246 257 281 272 275 273 278 275 275 269 262
138 125 146 159 164 162 153 156 147 166 184 171 166 169 176 170 185 156 161 158 172 189 275 302 249 228 226 239 269 250 267 258 262 277 282 285 284 281
136 157 166 172 176 173 179 181 176 192 186 173 197 184 187 190 192 175 157 176 183 188 201 242 302 347 327 259 223 270 250 256 291 299 292 287 292 291
154 164 167 169 176 180 183 190 193 192 160 204 206 201 199 198 200 195 191 186 203 193 216 195 182 140 286 291 249 255 227 279 290 288 281 280 284 285
139 167 166 163 169 192 191 192 188 153 188 206 206 204 199 195 175 196 191 195 198 190 224 208 192 195 205 249 285 285 271 268 267 283 291 287 278 284
162 163 169 182 197 191 193 176 182 192 187 210 207 201 200 183 206 195 198 213 217 195 225 205 221 235 196 313 283 284 275 262 269 275 287 286 294 296
178 175 173 188 193 188 179 184 181 211 222 207 211 203 192 187 199 190 191 197 220 207 221 211 231 123 141 228 275 284 283 287 280 285 280 275 284 288
177 180 182 186 185 187 176 175 202 217 215 208 200 199 184 190 185 183 186 194 190 206 218 269 225 187 222 216 265 278 283 289 297 299 283 281 285 286